contact:dominique.lefevre@mio.osupytheas.fr, maurice.libes@osupytheas.fr, didier.mallarino@osupytheas.fr
Project:EMSO http://www.emso-fr.org/EMSO-France
Depth: 2436.0 m
Title:EMSO Ligure Ouest : Data MII capteur MICROCAT
DateTime_Computer,Latitude,Longitude,Temperature,Conductivity,Pressure,DateTime_Instrument
DateTime_Computer,Latitude,Longitude,degC,S m-1,dbar,DateTime_Instrument
2020-05-05T00:02:26Z,42.805,6.029,13.2974,4.59980,2469.97,2020-5-05T02:03:07Z
2020-05-05T00:05:29Z,42.805,6.029,13.2974,4.59980,2469.947,2020-5-05T02:06:10Z
2020-05-05T00:08:32Z,42.805,6.029,13.2972,4.59982,2469.96,2020-5-05T02:09:13Z
2020-05-05T00:11:35Z,42.805,6.029,13.2979,4.59997,2469.923,2020-5-05T02:12:16Z
2020-05-05T00:14:39Z,42.805,6.029,13.2974,4.59986,2469.97,2020-5-05T02:15:20Z
2020-05-05T00:17:42Z,42.805,6.029,13.2972,4.59987,2469.947,2020-5-05T02:18:23Z
2020-05-05T00:20:45Z,42.805,6.029,13.2972,4.59983,2469.96,2020-5-05T02:21:26Z
2020-05-05T00:23:48Z,42.805,6.029,13.2977,4.59992,2469.947,2020-5-05T02:24:29Z
2020-05-05T00:26:51Z,42.805,6.029,13.2986,4.59994,2469.97,2020-5-05T02:27:33Z
2020-05-05T00:29:55Z,42.805,6.029,13.2978,4.60001,2469.984,2020-5-05T02:30:36Z
2020-05-05T00:32:58Z,42.805,6.029,13.2974,4.59988,2469.947,2020-5-05T02:33:39Z
2020-05-05T00:36:01Z,42.805,6.029,13.2974,4.59988,2469.97,2020-5-05T02:36:42Z
2020-05-05T00:39:04Z,42.805,6.029,13.2976,4.59991,2469.923,2020-5-05T02:39:46Z
2020-05-05T00:42:08Z,42.805,6.029,13.2983,4.60012,2469.947,2020-5-05T02:42:49Z
2020-05-05T00:45:11Z,42.805,6.029,13.2983,4.60011,2469.984,2020-5-05T02:45:52Z
2020-05-05T00:48:14Z,42.805,6.029,13.2975,4.59990,2469.947,2020-5-05T02:48:55Z
2020-05-05T00:51:17Z,42.805,6.029,13.2972,4.60006,2469.984,2020-5-05T02:51:58Z
2020-05-05T00:54:20Z,42.805,6.029,13.2992,4.59993,2469.97,2020-5-05T02:55:02Z
2020-05-05T00:57:24Z,42.805,6.029,13.2979,4.60007,2469.97,2020-5-05T02:58:05Z
2020-05-05T01:00:27Z,42.805,6.029,13.2982,4.59997,2469.984,2020-5-05T03:01:08Z
2020-05-05T01:03:30Z,42.805,6.029,13.2979,4.60001,2469.993,2020-5-05T03:04:11Z
2020-05-05T01:06:34Z,42.805,6.029,13.2982,4.60001,2469.97,2020-5-05T03:07:15Z
2020-05-05T01:09:37Z,42.805,6.029,13.2986,4.60003,2469.984,2020-5-05T03:10:18Z
2020-05-05T01:12:40Z,42.805,6.029,13.2967,4.59987,2470.007,2020-5-05T03:13:21Z
2020-05-05T01:15:43Z,42.805,6.029,13.2976,4.59996,2469.993,2020-5-05T03:16:25Z
2020-05-05T01:18:47Z,42.805,6.029,13.2979,4.59994,2469.97,2020-5-05T03:19:28Z
2020-05-05T01:21:50Z,42.805,6.029,13.2979,4.59996,2470.03,2020-5-05T03:22:31Z
2020-05-05T01:24:53Z,42.805,6.029,13.2983,4.60001,2469.97,2020-5-05T03:25:34Z
2020-05-05T01:27:56Z,42.805,6.029,13.2974,4.59991,2469.993,2020-5-05T03:28:38Z
2020-05-05T01:31:00Z,42.805,6.029,13.2983,4.60003,2470.007,2020-5-05T03:31:41Z
2020-05-05T01:34:03Z,42.805,6.029,13.2983,4.60006,2470.007,2020-5-05T03:34:44Z
2020-05-05T01:37:06Z,42.805,6.029,13.2995,4.60021,2470.017,2020-5-05T03:37:47Z
2020-05-05T01:40:09Z,42.805,6.029,13.2971,4.59995,2470.007,2020-5-05T03:40:51Z
2020-05-05T01:43:13Z,42.805,6.029,13.2990,4.60011,2470.03,2020-5-05T03:43:54Z
2020-05-05T01:46:16Z,42.805,6.029,13.2989,4.60013,2470.03,2020-5-05T03:46:57Z
2020-05-05T01:49:19Z,42.805,6.029,13.3000,4.60013,2470.053,2020-5-05T03:50:00Z
2020-05-05T01:52:22Z,42.805,6.029,13.2981,4.60011,2470.007,2020-5-05T03:53:04Z
2020-05-05T01:55:26Z,42.805,6.029,13.3004,4.60016,2470.017,2020-5-05T03:56:07Z
2020-05-05T01:58:29Z,42.805,6.029,13.2987,4.60003,2470.03,2020-5-05T03:59:10Z
2020-05-05T02:01:32Z,42.805,6.029,13.2983,4.59999,2470.007,2020-5-05T04:02:13Z
2020-05-05T02:04:35Z,42.805,6.029,13.2982,4.60008,2470.03,2020-5-05T04:05:16Z
2020-05-05T02:07:38Z,42.805,6.029,13.2983,4.60018,2470.03,2020-5-05T04:08:20Z
2020-05-05T02:10:42Z,42.805,6.029,13.2991,4.60010,2470.017,2020-5-05T04:11:23Z
2020-05-05T02:13:45Z,42.805,6.029,13.2993,4.59992,2470.03,2020-5-05T04:14:26Z
2020-05-05T02:16:48Z,42.805,6.029,13.2986,4.60004,2470.053,2020-5-05T04:17:29Z
2020-05-05T02:19:52Z,42.805,6.029,13.2994,4.60023,2470.053,2020-5-05T04:20:33Z
2020-05-05T02:22:55Z,42.805,6.029,13.2982,4.60013,2470.04,2020-5-05T04:23:36Z
2020-05-05T02:25:58Z,42.805,6.029,13.2990,4.60011,2470.04,2020-5-05T04:26:39Z
2020-05-05T02:29:01Z,42.805,6.029,13.2991,4.60024,2470.03,2020-5-05T04:29:43Z
2020-05-05T02:32:05Z,42.805,6.029,13.3001,4.60027,2470.053,2020-5-05T04:32:46Z
2020-05-05T02:35:08Z,42.805,6.029,13.2995,4.60022,2470.063,2020-5-05T04:35:49Z
2020-05-05T02:38:11Z,42.805,6.029,13.3008,4.60040,2470.017,2020-5-05T04:38:52Z
2020-05-05T02:41:14Z,42.805,6.029,13.2996,4.60052,2470.053,2020-5-05T04:41:55Z
2020-05-05T02:44:18Z,42.805,6.029,13.2990,4.60044,2470.077,2020-5-05T04:44:59Z
2020-05-05T02:47:21Z,42.805,6.029,13.3001,4.60049,2470.077,2020-5-05T04:48:02Z
2020-05-05T02:50:24Z,42.805,6.029,13.3014,4.60054,2470.087,2020-5-05T04:51:05Z
2020-05-05T02:53:27Z,42.805,6.029,13.3001,4.60026,2470.04,2020-5-05T04:54:08Z
2020-05-05T02:56:31Z,42.805,6.029,13.3017,4.60046,2470.087,2020-5-05T04:57:12Z
2020-05-05T02:59:34Z,42.805,6.029,13.3013,4.60043,2470.087,2020-5-05T05:00:15Z
2020-05-05T03:02:37Z,42.805,6.029,13.2992,4.60039,2470.087,2020-5-05T05:03:18Z
2020-05-05T03:05:41Z,42.805,6.029,13.3001,4.60039,2470.11,2020-5-05T05:06:22Z
2020-05-05T03:08:44Z,42.805,6.029,13.3019,4.60026,2470.1,2020-5-05T05:09:25Z
2020-05-05T03:11:47Z,42.805,6.029,13.2976,4.60025,2470.087,2020-5-05T05:12:28Z
2020-05-05T03:14:50Z,42.805,6.029,13.3013,4.60013,2470.087,2020-5-05T05:15:31Z
2020-05-05T03:17:53Z,42.805,6.029,13.3003,4.60047,2470.063,2020-5-05T05:18:35Z
2020-05-05T03:20:57Z,42.805,6.029,13.3001,4.60065,2470.133,2020-5-05T05:21:38Z
2020-05-05T03:24:00Z,42.805,6.029,13.2992,4.60026,2470.124,2020-5-05T05:24:41Z
2020-05-05T03:27:03Z,42.805,6.029,13.3009,4.60013,2470.11,2020-5-05T05:27:44Z
2020-05-05T03:30:07Z,42.805,6.029,13.3014,4.60043,2470.11,2020-5-05T05:30:48Z
2020-05-05T03:33:10Z,42.805,6.029,13.3024,4.60046,2470.087,2020-5-05T05:33:51Z
2020-05-05T03:36:13Z,42.805,6.029,13.2973,4.60018,2470.11,2020-5-05T05:36:54Z
2020-05-05T03:39:16Z,42.805,6.029,13.2988,4.59999,2470.124,2020-5-05T05:39:57Z
2020-05-05T03:42:19Z,42.805,6.029,13.2990,4.60003,2470.124,2020-5-05T05:43:01Z
2020-05-05T03:45:23Z,42.805,6.029,13.2996,4.60011,2470.133,2020-5-05T05:46:04Z
2020-05-05T03:48:26Z,42.805,6.029,13.2974,4.59977,2470.147,2020-5-05T05:49:07Z
2020-05-05T03:51:29Z,42.805,6.029,13.2990,4.60011,2470.11,2020-5-05T05:52:10Z
2020-05-05T03:54:33Z,42.805,6.029,13.2991,4.60044,2470.147,2020-5-05T05:55:14Z
2020-05-05T03:57:36Z,42.805,6.029,13.2984,4.60011,2470.133,2020-5-05T05:58:17Z
2020-05-05T04:00:39Z,42.805,6.029,13.2992,4.60008,2470.156,2020-5-05T06:01:20Z
2020-05-05T04:03:42Z,42.805,6.029,13.3011,4.60051,2470.133,2020-5-05T06:04:23Z
2020-05-05T04:06:45Z,42.805,6.029,13.2991,4.59982,2470.124,2020-5-05T06:07:26Z
2020-05-05T04:09:49Z,42.805,6.029,13.2990,4.60016,2470.133,2020-5-05T06:10:30Z
2020-05-05T04:12:52Z,42.805,6.029,13.3010,4.59993,2470.156,2020-5-05T06:13:33Z
2020-05-05T04:15:55Z,42.805,6.029,13.3000,4.60021,2470.156,2020-5-05T06:16:36Z
2020-05-05T04:18:58Z,42.805,6.029,13.2993,4.59986,2470.133,2020-5-05T06:19:39Z
2020-05-05T04:22:02Z,42.805,6.029,13.2995,4.59988,2470.133,2020-5-05T06:22:43Z
2020-05-05T04:25:05Z,42.805,6.029,13.3000,4.60002,2470.133,2020-5-05T06:25:46Z
2020-05-05T04:28:08Z,42.805,6.029,13.2986,4.59982,2470.194,2020-5-05T06:28:49Z
2020-05-05T04:31:11Z,42.805,6.029,13.2986,4.59992,2470.18,2020-5-05T06:31:53Z
2020-05-05T04:34:15Z,42.805,6.029,13.2990,4.59982,2470.133,2020-5-05T06:34:56Z
2020-05-05T04:37:18Z,42.805,6.029,13.2983,4.59986,2470.171,2020-5-05T06:37:59Z
2020-05-05T04:40:21Z,42.805,6.029,13.2981,4.59993,2470.18,2020-5-05T06:41:02Z
2020-05-05T04:43:24Z,42.805,6.029,13.2980,4.59991,2470.194,2020-5-05T06:44:05Z
2020-05-05T04:46:28Z,42.805,6.029,13.2986,4.59989,2470.194,2020-5-05T06:47:09Z
2020-05-05T04:49:31Z,42.805,6.029,13.2990,4.59993,2470.18,2020-5-05T06:50:12Z
2020-05-05T04:52:34Z,42.805,6.029,13.3014,4.59994,2470.194,2020-5-05T06:53:15Z
2020-05-05T04:55:37Z,42.805,6.029,13.3003,4.59988,2470.194,2020-5-05T06:56:18Z
2020-05-05T04:58:40Z,42.805,6.029,13.2984,4.59982,2470.156,2020-5-05T06:59:22Z
2020-05-05T05:01:44Z,42.805,6.029,13.2991,4.59991,2470.156,2020-5-05T07:02:25Z
2020-05-05T05:04:47Z,42.805,6.029,13.2996,4.59992,2470.194,2020-5-05T07:05:28Z
2020-05-05T05:07:50Z,42.805,6.029,13.2993,4.59996,2470.156,2020-5-05T07:08:31Z
2020-05-05T05:10:53Z,42.805,6.029,13.2986,4.59991,2470.171,2020-5-05T07:11:35Z
2020-05-05T05:13:57Z,42.805,6.029,13.2980,4.59991,2470.18,2020-5-05T07:14:38Z
2020-05-05T05:17:00Z,42.805,6.029,13.2990,4.59996,2470.18,2020-5-05T07:17:41Z
2020-05-05T05:20:03Z,42.805,6.029,13.3012,4.59991,2470.203,2020-5-05T07:20:44Z
2020-05-05T05:23:06Z,42.805,6.029,13.3006,4.59996,2470.18,2020-5-05T07:23:47Z
2020-05-05T05:26:10Z,42.805,6.029,13.2999,4.59997,2470.171,2020-5-05T07:26:51Z
2020-05-05T05:29:13Z,42.805,6.029,13.2991,4.59987,2470.18,2020-5-05T07:29:54Z
2020-05-05T05:32:16Z,42.805,6.029,13.2995,4.59997,2470.18,2020-5-05T07:32:57Z
2020-05-05T05:35:19Z,42.805,6.029,13.2997,4.59994,2470.194,2020-5-05T07:36:00Z
2020-05-05T05:38:22Z,42.805,6.029,13.3007,4.60002,2470.171,2020-5-05T07:39:04Z
2020-05-05T05:41:26Z,42.805,6.029,13.2993,4.59996,2470.18,2020-5-05T07:42:07Z
2020-05-05T05:44:29Z,42.805,6.029,13.2995,4.59993,2470.156,2020-5-05T07:45:10Z
2020-05-05T05:47:32Z,42.805,6.029,13.2988,4.59986,2470.194,2020-5-05T07:48:13Z
2020-05-05T05:50:35Z,42.805,6.029,13.3000,4.59990,2470.171,2020-5-05T07:51:17Z
2020-05-05T05:53:39Z,42.805,6.029,13.3014,4.59995,2470.156,2020-5-05T07:54:20Z
2020-05-05T05:56:42Z,42.805,6.029,13.3029,4.60003,2470.18,2020-5-05T07:57:23Z
2020-05-05T05:59:45Z,42.805,6.029,13.3006,4.60000,2470.203,2020-5-05T08:00:26Z
2020-05-05T06:02:48Z,42.805,6.029,13.3012,4.60029,2470.18,2020-5-05T08:03:30Z
2020-05-05T06:05:52Z,42.805,6.029,13.3024,4.60005,2470.217,2020-5-05T08:06:33Z
2020-05-05T06:08:55Z,42.805,6.029,13.3011,4.60011,2470.18,2020-5-05T08:09:36Z
2020-05-05T06:11:58Z,42.805,6.029,13.3029,4.60023,2470.18,2020-5-05T08:12:39Z
2020-05-05T06:15:01Z,42.805,6.029,13.2991,4.60021,2470.171,2020-5-05T08:15:43Z
2020-05-05T06:18:05Z,42.805,6.029,13.3003,4.60013,2470.217,2020-5-05T08:18:46Z
2020-05-05T06:21:08Z,42.805,6.029,13.3001,4.60022,2470.156,2020-5-05T08:21:49Z
2020-05-05T06:24:11Z,42.805,6.029,13.2990,4.59988,2470.203,2020-5-05T08:24:52Z
2020-05-05T06:27:14Z,42.805,6.029,13.2991,4.59990,2470.171,2020-5-05T08:27:56Z
2020-05-05T06:30:18Z,42.805,6.029,13.3026,4.60018,2470.171,2020-5-05T08:30:59Z
2020-05-05T06:33:21Z,42.805,6.029,13.2994,4.60001,2470.194,2020-5-05T08:34:02Z
2020-05-05T06:36:24Z,42.805,6.029,13.3018,4.60024,2470.203,2020-5-05T08:37:05Z
2020-05-05T06:39:27Z,42.805,6.029,13.3008,4.59997,2470.194,2020-5-05T08:40:09Z
2020-05-05T06:42:31Z,42.805,6.029,13.3026,4.60060,2470.18,2020-5-05T08:43:12Z
2020-05-05T06:45:34Z,42.805,6.029,13.2983,4.60067,2470.184,2020-5-05T08:46:15Z
2020-05-05T06:48:37Z,42.805,6.029,13.3021,4.60020,2470.147,2020-5-05T08:49:18Z
2020-05-05T06:51:40Z,42.805,6.029,13.3006,4.60045,2470.147,2020-5-05T08:52:21Z
2020-05-05T06:54:43Z,42.805,6.029,13.3014,4.60023,2470.133,2020-5-05T08:55:25Z
2020-05-05T06:57:47Z,42.805,6.029,13.3026,4.60039,2470.133,2020-5-05T08:58:28Z
2020-05-05T07:00:50Z,42.805,6.029,13.3019,4.60074,2470.156,2020-5-05T09:01:31Z
2020-05-05T07:03:53Z,42.805,6.029,13.3026,4.59994,2470.194,2020-5-05T09:04:35Z
2020-05-05T07:06:57Z,42.805,6.029,13.2972,4.59989,2470.133,2020-5-05T09:07:38Z
2020-05-05T07:10:00Z,42.805,6.029,13.2990,4.59981,2470.156,2020-5-05T09:10:41Z
2020-05-05T07:13:03Z,42.805,6.029,13.2972,4.59979,2470.18,2020-5-05T09:13:44Z
2020-05-05T07:16:06Z,42.805,6.029,13.2972,4.59976,2470.194,2020-5-05T09:16:48Z
2020-05-05T07:19:10Z,42.805,6.029,13.2969,4.59974,2470.156,2020-5-05T09:19:51Z
2020-05-05T07:22:13Z,42.805,6.029,13.2968,4.59975,2470.171,2020-5-05T09:22:54Z
2020-05-05T07:25:16Z,42.805,6.029,13.2971,4.59976,2470.147,2020-5-05T09:25:57Z
2020-05-05T07:28:19Z,42.805,6.029,13.2964,4.59976,2470.147,2020-5-05T09:29:00Z
2020-05-05T07:31:23Z,42.805,6.029,13.2974,4.59975,2470.147,2020-5-05T09:32:04Z
2020-05-05T07:34:26Z,42.805,6.029,13.2971,4.59979,2470.133,2020-5-05T09:35:07Z
2020-05-05T07:37:29Z,42.805,6.029,13.2969,4.59974,2470.147,2020-5-05T09:38:11Z
2020-05-05T07:40:33Z,42.805,6.029,13.2967,4.59974,2470.087,2020-5-05T09:41:14Z
2020-05-05T07:43:36Z,42.805,6.029,13.2970,4.59976,2470.133,2020-5-05T09:44:17Z
2020-05-05T07:46:39Z,42.805,6.029,13.2968,4.59972,2470.11,2020-5-05T09:47:20Z
2020-05-05T07:49:42Z,42.805,6.029,13.2968,4.59973,2470.11,2020-5-05T09:50:24Z
2020-05-05T07:52:46Z,42.805,6.029,13.2965,4.59973,2470.124,2020-5-05T09:53:27Z
2020-05-05T07:55:49Z,42.805,6.029,13.2967,4.59972,2470.147,2020-5-05T09:56:30Z
2020-05-05T07:58:52Z,42.805,6.029,13.2966,4.59971,2470.11,2020-5-05T09:59:33Z
2020-05-05T08:01:55Z,42.805,6.029,13.2967,4.59971,2470.11,2020-5-05T10:02:37Z
2020-05-05T08:04:59Z,42.805,6.029,13.2965,4.59971,2470.11,2020-5-05T10:05:40Z
2020-05-05T08:08:02Z,42.805,6.029,13.2965,4.59971,2470.11,2020-5-05T10:08:43Z
2020-05-05T08:11:05Z,42.805,6.029,13.2968,4.59971,2470.077,2020-5-05T10:11:46Z
2020-05-05T08:14:08Z,42.805,6.029,13.2970,4.59971,2470.087,2020-5-05T10:14:50Z
2020-05-05T08:17:12Z,42.805,6.029,13.2969,4.59971,2470.063,2020-5-05T10:17:53Z
2020-05-05T08:20:15Z,42.805,6.029,13.2966,4.59971,2470.147,2020-5-05T10:20:56Z
2020-05-05T08:23:18Z,42.805,6.029,13.2968,4.59973,2470.124,2020-5-05T10:23:59Z
2020-05-05T08:26:21Z,42.805,6.029,13.2971,4.59972,2470.063,2020-5-05T10:27:03Z
2020-05-05T08:29:25Z,42.805,6.029,13.2970,4.59971,2470.11,2020-5-05T10:30:06Z
2020-05-05T08:32:28Z,42.805,6.029,13.2967,4.59980,2470.087,2020-5-05T10:33:09Z
2020-05-05T08:35:31Z,42.805,6.029,13.2969,4.59972,2470.1,2020-5-05T10:36:12Z
2020-05-05T08:38:35Z,42.805,6.029,13.2967,4.59973,2470.087,2020-5-05T10:39:16Z
2020-05-05T08:41:38Z,42.805,6.029,13.2971,4.59971,2470.087,2020-5-05T10:42:19Z
2020-05-05T08:44:41Z,42.805,6.029,13.2967,4.59971,2470.11,2020-5-05T10:45:22Z
2020-05-05T08:47:45Z,42.805,6.029,13.2966,4.59971,2470.1,2020-5-05T10:48:26Z
2020-05-05T08:50:48Z,42.805,6.029,13.2967,4.59973,2470.053,2020-5-05T10:51:29Z
2020-05-05T08:53:51Z,42.805,6.029,13.2971,4.59972,2470.077,2020-5-05T10:54:32Z
2020-05-05T08:56:54Z,42.805,6.029,13.2965,4.59973,2470.087,2020-5-05T10:57:35Z
2020-05-05T08:59:57Z,42.805,6.029,13.2970,4.59971,2470.077,2020-5-05T11:00:39Z
2020-05-05T09:03:01Z,42.805,6.029,13.2967,4.59975,2470.063,2020-5-05T11:03:42Z
2020-05-05T09:06:04Z,42.805,6.029,13.2969,4.59971,2470.087,2020-5-05T11:06:45Z
2020-05-05T09:09:07Z,42.805,6.029,13.2973,4.59970,2470.077,2020-5-05T11:09:48Z
2020-05-05T09:12:10Z,42.805,6.029,13.2967,4.59971,2470.063,2020-5-05T11:12:52Z
2020-05-05T09:15:14Z,42.805,6.029,13.2967,4.59969,2470.04,2020-5-05T11:15:55Z
2020-05-05T09:18:17Z,42.805,6.029,13.2968,4.59970,2470.077,2020-5-05T11:18:58Z
2020-05-05T09:21:20Z,42.805,6.029,13.2967,4.59971,2470.063,2020-5-05T11:22:01Z
2020-05-05T09:24:23Z,42.805,6.029,13.2969,4.59971,2470.053,2020-5-05T11:25:05Z
2020-05-05T09:27:27Z,42.805,6.029,13.2968,4.59971,2470.053,2020-5-05T11:28:08Z
2020-05-05T09:30:30Z,42.805,6.029,13.2969,4.59973,2470.063,2020-5-05T11:31:11Z
2020-05-05T09:33:33Z,42.805,6.029,13.2967,4.59973,2470.053,2020-5-05T11:34:14Z
2020-05-05T09:36:37Z,42.805,6.029,13.2967,4.59969,2470.03,2020-5-05T11:37:18Z
2020-05-05T09:39:40Z,42.805,6.029,13.2967,4.59970,2470.04,2020-5-05T11:40:21Z
2020-05-05T09:42:43Z,42.805,6.029,13.2967,4.59971,2470.03,2020-5-05T11:43:24Z
2020-05-05T09:45:46Z,42.805,6.029,13.2968,4.59970,2470.053,2020-5-05T11:46:27Z
2020-05-05T09:48:49Z,42.805,6.029,13.2965,4.59972,2470.03,2020-5-05T11:49:31Z
2020-05-05T09:51:53Z,42.805,6.029,13.2971,4.59971,2470.03,2020-5-05T11:52:34Z
2020-05-05T09:54:56Z,42.805,6.029,13.2967,4.59971,2469.993,2020-5-05T11:55:37Z
2020-05-05T09:57:59Z,42.805,6.029,13.2969,4.59970,2470.017,2020-5-05T11:58:40Z
2020-05-05T10:01:03Z,42.805,6.029,13.2968,4.59970,2470.017,2020-5-05T12:01:44Z
2020-05-05T10:04:06Z,42.805,6.029,13.2968,4.59974,2470.04,2020-5-05T12:04:47Z
2020-05-05T10:07:09Z,42.805,6.029,13.2968,4.59971,2470.017,2020-5-05T12:07:51Z
2020-05-05T10:10:13Z,42.805,6.029,13.2968,4.59970,2469.993,2020-5-05T12:10:54Z
2020-05-05T10:13:16Z,42.805,6.029,13.2967,4.59968,2469.993,2020-5-05T12:13:57Z
2020-05-05T10:16:19Z,42.805,6.029,13.2970,4.59971,2469.97,2020-5-05T12:17:00Z
2020-05-05T10:19:22Z,42.805,6.029,13.2971,4.59969,2470.007,2020-5-05T12:20:04Z
2020-05-05T10:22:26Z,42.805,6.029,13.2965,4.59968,2470.007,2020-5-05T12:23:07Z
2020-05-05T10:25:29Z,42.805,6.029,13.2970,4.59969,2470.03,2020-5-05T12:26:10Z
2020-05-05T10:28:32Z,42.805,6.029,13.2970,4.59969,2469.993,2020-5-05T12:29:13Z
2020-05-05T10:31:35Z,42.805,6.029,13.2969,4.59969,2469.97,2020-5-05T12:32:17Z
2020-05-05T10:34:39Z,42.805,6.029,13.2974,4.59975,2469.993,2020-5-05T12:35:20Z
2020-05-05T10:37:42Z,42.805,6.029,13.2971,4.59970,2469.984,2020-5-05T12:38:23Z
2020-05-05T10:40:45Z,42.805,6.029,13.2969,4.59971,2469.97,2020-5-05T12:41:27Z
2020-05-05T10:43:49Z,42.805,6.029,13.2982,4.59978,2469.97,2020-5-05T12:44:30Z
2020-05-05T10:46:52Z,42.805,6.029,13.2971,4.59975,2469.984,2020-5-05T12:47:33Z
2020-05-05T10:49:55Z,42.805,6.029,13.2974,4.59980,2469.97,2020-5-05T12:50:36Z
2020-05-05T10:52:58Z,42.805,6.029,13.2997,4.59987,2469.96,2020-5-05T12:53:40Z
2020-05-05T10:56:02Z,42.805,6.029,13.2984,4.60012,2470.007,2020-5-05T12:56:43Z
2020-05-05T10:59:05Z,42.805,6.029,13.2984,4.60008,2469.993,2020-5-05T12:59:46Z
2020-05-05T11:02:08Z,42.805,6.029,13.2977,4.60005,2469.97,2020-5-05T13:02:49Z
2020-05-05T11:05:11Z,42.805,6.029,13.2983,4.59996,2469.937,2020-5-05T13:05:53Z
2020-05-05T11:08:15Z,42.805,6.029,13.2988,4.60006,2469.937,2020-5-05T13:08:56Z
2020-05-05T11:11:18Z,42.805,6.029,13.2980,4.60001,2469.947,2020-5-05T13:11:59Z
2020-05-05T11:14:21Z,42.805,6.029,13.2987,4.60006,2469.947,2020-5-05T13:15:02Z
2020-05-05T11:17:24Z,42.805,6.029,13.2981,4.60006,2469.947,2020-5-05T13:18:06Z
2020-05-05T11:20:28Z,42.805,6.029,13.2982,4.60000,2469.97,2020-5-05T13:21:09Z
2020-05-05T11:23:31Z,42.805,6.029,13.2981,4.60004,2469.97,2020-5-05T13:24:12Z
2020-05-05T11:26:34Z,42.805,6.029,13.2992,4.59996,2469.947,2020-5-05T13:27:15Z
2020-05-05T11:29:37Z,42.805,6.029,13.2985,4.59992,2469.947,2020-5-05T13:30:19Z
2020-05-05T11:32:41Z,42.805,6.029,13.2975,4.60009,2469.96,2020-5-05T13:33:22Z
2020-05-05T11:35:44Z,42.805,6.029,13.2980,4.60001,2469.947,2020-5-05T13:36:25Z
2020-05-05T11:38:47Z,42.805,6.029,13.2971,4.60007,2469.96,2020-5-05T13:39:28Z
2020-05-05T11:41:50Z,42.805,6.029,13.2976,4.59999,2469.97,2020-5-05T13:42:32Z
2020-05-05T11:44:54Z,42.805,6.029,13.2980,4.60009,2469.97,2020-5-05T13:45:35Z
2020-05-05T11:47:57Z,42.805,6.029,13.2979,4.60010,2469.97,2020-5-05T13:48:38Z
2020-05-05T11:51:00Z,42.805,6.029,13.2971,4.59995,2469.937,2020-5-05T13:51:41Z
2020-05-05T11:54:03Z,42.805,6.029,13.2984,4.59999,2469.923,2020-5-05T13:54:45Z
2020-05-05T11:57:07Z,42.805,6.029,13.2971,4.60009,2469.923,2020-5-05T13:57:48Z
2020-05-05T12:00:10Z,42.805,6.029,13.2982,4.60003,2469.96,2020-5-05T14:00:51Z
2020-05-05T12:03:13Z,42.805,6.029,13.2974,4.60001,2469.96,2020-5-05T14:03:54Z
2020-05-05T12:06:16Z,42.805,6.029,13.2976,4.59988,2469.937,2020-5-05T14:06:58Z
2020-05-05T12:09:20Z,42.805,6.029,13.2978,4.59996,2469.923,2020-5-05T14:10:01Z
2020-05-05T12:12:23Z,42.805,6.029,13.2978,4.59988,2469.923,2020-5-05T14:13:04Z
2020-05-05T12:15:26Z,42.805,6.029,13.2980,4.60006,2469.96,2020-5-05T14:16:07Z
2020-05-05T12:18:29Z,42.805,6.029,13.2971,4.59996,2469.923,2020-5-05T14:19:10Z
2020-05-05T12:21:33Z,42.805,6.029,13.2977,4.59986,2469.923,2020-5-05T14:22:14Z
2020-05-05T12:24:36Z,42.805,6.029,13.2968,4.59986,2469.947,2020-5-05T14:25:17Z
2020-05-05T12:27:39Z,42.805,6.029,13.2971,4.59999,2469.923,2020-5-05T14:28:20Z
2020-05-05T12:30:42Z,42.805,6.029,13.2972,4.59995,2469.937,2020-5-05T14:31:23Z
2020-05-05T12:33:45Z,42.805,6.029,13.2971,4.59991,2469.923,2020-5-05T14:34:27Z
2020-05-05T12:36:49Z,42.805,6.029,13.2974,4.59992,2469.96,2020-5-05T14:37:30Z
2020-05-05T12:39:52Z,42.805,6.029,13.2979,4.59989,2469.923,2020-5-05T14:40:33Z
2020-05-05T12:42:55Z,42.805,6.029,13.2980,4.60002,2469.923,2020-5-05T14:43:36Z
2020-05-05T12:45:58Z,42.805,6.029,13.2974,4.59991,2469.947,2020-5-05T14:46:40Z
2020-05-05T12:49:02Z,42.805,6.029,13.2972,4.59993,2469.947,2020-5-05T14:49:43Z
2020-05-05T12:52:05Z,42.805,6.029,13.2974,4.59983,2469.96,2020-5-05T14:52:46Z
2020-05-05T12:55:08Z,42.805,6.029,13.2972,4.59987,2469.96,2020-5-05T14:55:49Z
2020-05-05T12:58:11Z,42.805,6.029,13.2971,4.59982,2469.947,2020-5-05T14:58:53Z
2020-05-05T13:01:15Z,42.805,6.029,13.2976,4.59996,2469.947,2020-5-05T15:01:56Z
2020-05-05T13:04:18Z,42.805,6.029,13.2975,4.59981,2469.937,2020-5-05T15:04:59Z
2020-05-05T13:07:21Z,42.805,6.029,13.2976,4.59983,2469.947,2020-5-05T15:08:02Z
2020-05-05T13:10:24Z,42.805,6.029,13.2977,4.59988,2469.923,2020-5-05T15:11:06Z
2020-05-05T13:13:28Z,42.805,6.029,13.2979,4.59991,2469.909,2020-5-05T15:14:09Z
2020-05-05T13:16:31Z,42.805,6.029,13.2975,4.59989,2469.923,2020-5-05T15:17:12Z
2020-05-05T13:19:34Z,42.805,6.029,13.2977,4.59991,2469.97,2020-5-05T15:20:15Z
2020-05-05T13:22:37Z,42.805,6.029,13.2976,4.59991,2469.947,2020-5-05T15:23:18Z
2020-05-05T13:25:40Z,42.805,6.029,13.2975,4.59991,2469.956,2020-5-05T15:26:22Z
2020-05-05T13:28:44Z,42.805,6.029,13.2976,4.59992,2469.96,2020-5-05T15:29:25Z
2020-05-05T13:31:47Z,42.805,6.029,13.2980,4.60000,2469.937,2020-5-05T15:32:28Z
2020-05-05T13:34:50Z,42.805,6.029,13.2976,4.59991,2469.947,2020-5-05T15:35:31Z
2020-05-05T13:37:54Z,42.805,6.029,13.2976,4.59995,2469.947,2020-5-05T15:38:35Z
2020-05-05T13:40:57Z,42.805,6.029,13.2980,4.59997,2469.97,2020-5-05T15:41:38Z
2020-05-05T13:44:00Z,42.805,6.029,13.2976,4.59990,2469.947,2020-5-05T15:44:41Z
2020-05-05T13:47:03Z,42.805,6.029,13.2973,4.59982,2469.984,2020-5-05T15:47:44Z
2020-05-05T13:50:06Z,42.805,6.029,13.2978,4.59995,2469.947,2020-5-05T15:50:48Z
2020-05-05T13:53:10Z,42.805,6.029,13.2974,4.59987,2469.97,2020-5-05T15:53:51Z
2020-05-05T13:56:13Z,42.805,6.029,13.2975,4.59985,2469.984,2020-5-05T15:56:54Z
2020-05-05T13:59:16Z,42.805,6.029,13.2977,4.59986,2469.984,2020-5-05T15:59:57Z
2020-05-05T14:02:19Z,42.805,6.029,13.2971,4.59985,2469.97,2020-5-05T16:03:01Z
2020-05-05T14:05:23Z,42.805,6.029,13.2972,4.59983,2469.97,2020-5-05T16:06:04Z
2020-05-05T14:08:26Z,42.805,6.029,13.2976,4.59983,2469.923,2020-5-05T16:09:07Z
2020-05-05T14:11:29Z,42.805,6.029,13.2977,4.59983,2469.97,2020-5-05T16:12:10Z
2020-05-05T14:14:32Z,42.805,6.029,13.2974,4.59989,2469.947,2020-5-05T16:15:14Z
2020-05-05T14:17:36Z,42.805,6.029,13.2969,4.59985,2469.984,2020-5-05T16:18:17Z
2020-05-05T14:20:39Z,42.805,6.029,13.2977,4.59981,2469.984,2020-5-05T16:21:20Z
2020-05-05T14:23:42Z,42.805,6.029,13.2972,4.59981,2469.97,2020-5-05T16:24:23Z
2020-05-05T14:26:46Z,42.805,6.029,13.2976,4.59983,2469.984,2020-5-05T16:27:27Z
2020-05-05T14:29:49Z,42.805,6.029,13.2975,4.59979,2469.993,2020-5-05T16:30:30Z
2020-05-05T14:32:52Z,42.805,6.029,13.2976,4.59987,2470.007,2020-5-05T16:33:33Z
2020-05-05T14:35:56Z,42.805,6.029,13.2974,4.59983,2470.007,2020-5-05T16:36:37Z
2020-05-05T14:38:59Z,42.805,6.029,13.2980,4.59986,2469.993,2020-5-05T16:39:40Z
2020-05-05T14:42:02Z,42.805,6.029,13.2972,4.59983,2469.993,2020-5-05T16:42:43Z
2020-05-05T14:45:05Z,42.805,6.029,13.2976,4.59981,2470.017,2020-5-05T16:45:46Z
2020-05-05T14:48:08Z,42.805,6.029,13.2971,4.59976,2470.007,2020-5-05T16:48:50Z
2020-05-05T14:51:12Z,42.805,6.029,13.2975,4.59999,2470.017,2020-5-05T16:51:53Z
2020-05-05T14:54:15Z,42.805,6.029,13.2974,4.59988,2470.053,2020-5-05T16:54:56Z
2020-05-05T14:57:18Z,42.805,6.029,13.2970,4.59985,2470.053,2020-5-05T16:57:59Z
2020-05-05T15:00:21Z,42.805,6.029,13.2976,4.59983,2470.017,2020-5-05T17:01:03Z
2020-05-05T15:03:25Z,42.805,6.029,13.2973,4.59982,2470.03,2020-5-05T17:04:06Z
2020-05-05T15:06:28Z,42.805,6.029,13.2976,4.59982,2470.04,2020-5-05T17:07:09Z
2020-05-05T15:09:31Z,42.805,6.029,13.2975,4.59986,2470.017,2020-5-05T17:10:12Z
2020-05-05T15:12:34Z,42.805,6.029,13.2975,4.59981,2470.04,2020-5-05T17:13:15Z
2020-05-05T15:15:38Z,42.805,6.029,13.2974,4.59981,2470.053,2020-5-05T17:16:19Z